Location: Taipo
(41.0000°S, 175.9500°E)
Time: 11:44:33
(UTC+00:00)

Cosmos 2082 Rocket - Pass Details

Date: 18 April 2024
Orbit: 831 x 854 km, 71.0° (Epoch: 24 May)

Event Time Altitude Azimuth Distance (km) Brightness Sun altitude
Rises 18:19:25 0° 211° (SSW) 3,411 5.0 -6.6°
Reaches altitude 10° 18:22:00 10° 218° (SW) 2,471 4.2 -6.1°
Maximum altitude 18:27:13 39° 286° (WNW) 1,235 2.7 -5.1°
Drops below altitude 10° 18:32:25 10° 353° (N) 2,451 4.7 -4.2°
Sets 18:34:58 0° 0° (N) 3,381 5.5 -3.7°
